Location: Unspecified
(0.0000°N, 0.0000°E)
Time: 03:47:29
(UTC+00:00)

deb S5M - Pass Details

Date: 26 June 2024
Orbit: 774 x 867 km, 82.5° (Epoch: 17 July)

Event Time Altitude Azimuth Distance (km) Brightness Sun altitude
Exits shadow 03:44:18 40° 359° (N) 1,210 ? -31.5°
Drops below altitude 10° 03:47:48 10° 2° (N) 2,464 ? -30.7°
Sets 03:50:14 0° 3° (N) 3,409 ? -30.2°
